This is the latest recevied weather packets stored in our database for station/object W8KVG. If no packets are shown the sender has not sent any weather packets the latest 10 day(s).
| Time | Temp. | Humidity | Pressure | Rain* | Wind** | Luminosity | Snow |
|---|---|---|---|---|---|---|---|
| 1788265963 | 76° F | 91% | 763.5 mmHg | 0 in | - | 34 W/m² | - |
| 1788265662 | 76° F | 92% | 763.6 mmHg | 0 in | - | 33 W/m² | - |
| 1788265356 | 76° F | 92% | 763.5 mmHg | 0 in | - | 42 W/m² | - |
| 1788265050 | 75° F | 93% | 763.5 mmHg | 0 in | - | 49 W/m² | - |
| 1788264746 | 75° F | 94% | 763.5 mmHg | 0 in | - | 38 W/m² | - |
| 1788264445 | 75° F | 94% | 763.4 mmHg | 0 in | - | 29 W/m² | - |
| 1788264140 | 75° F | 94% | 763.4 mmHg | 0 in | - | 24 W/m² | - |
| 1788263836 | 74° F | 94% | 763.4 mmHg | 0 in | - | 23 W/m² | - |
| 1788263532 | 74° F | 94% | 763.3 mmHg | 0 in | - | 18 W/m² | - |
| 1788263229 | 74° F | 95% | 763.3 mmHg | 0 in | - | 23 W/m² | - |
| 1788262929 | 74° F | 95% | 763.3 mmHg | 0 in | - | 18 W/m² | - |
| 1788262622 | 74° F | 95% | 763.2 mmHg | 0 in | - | 15 W/m² | - |
| 1788262317 | 74° F | 95% | 763.3 mmHg | 0 in | - | 18 W/m² | - |
| 1788262016 | 73° F | 96% | 763.3 mmHg | 0 in | - | 23 W/m² | - |
| 1788261710 | 73° F | 96% | 763.3 mmHg | 0 in | - | 14 W/m² | - |
| 1788261409 | 73° F | 96% | 763.3 mmHg | 0 in | - | 10 W/m² | - |
| 1788261104 | 73° F | 96% | 763 mmHg | 0 in | - | 8 W/m² | - |
| 1788260799 | 73° F | 96% | 763.1 mmHg | 0 in | - | 5 W/m² | - |
| 1788260494 | 73° F | 96% | 763.1 mmHg | 0 in | - | 3 W/m² | - |
| 1788260191 | 73° F | 96% | 763.2 mmHg | 0 in | - | 3 W/m² | - |
| 1788259889 | 73° F | 96% | 763.2 mmHg | 0 in | - | 2 W/m² | - |
| 1788259586 | 73° F | 96% | 763.2 mmHg | 0 in | - | 1 W/m² | - |
| 1788259281 | 73° F | 97% | 763 mmHg | 0 in | - | 0 W/m² | - |
| 1788258975 | 73° F | 97% | 763.1 mmHg | 0 in | - | 0 W/m² | - |
| 1788258670 | 73° F | 97% | 763.1 mmHg | 0 in | - | 0 W/m² | - |
* Rain latest hour (hover to see other rain measurements)
** Current wind speed in m/s (hover to see current wind gust speed)